LC10 LKPR-LDSB

Flight info

Callsign LC10
Flight time 1h 5m
Altitude 350
Route VOZ5M NURMI VALLU RASTU OKLAX KEMIX UVODI
Aircraft B733/M-V/N

Departure

Time 2026-04-24 08:21
Airport Václav Havel Airport Prague (LKPR)

Arrival

Time 2026-04-24 09:26
Airport Brač Airport (LDSB)
Time Latitude Longitude Altitude Speed Heading
2026-04-24 08:15 50.11033 14.26783 1253 ft 0 kts 64°
2026-04-24 08:17 50.11031 14.26779 1253 ft 2 kts 64°
2026-04-24 08:17 50.11020 14.26742 1253 ft 4 kts 64°
2026-04-24 08:17 50.11002 14.26686 1253 ft 5 kts 47°
2026-04-24 08:18 50.10997 14.26680 1253 ft 0 kts 358°
2026-04-24 08:18 50.11010 14.26678 1253 ft 5 kts 354°
2026-04-24 08:18 50.11079 14.26628 1253 ft 14 kts 329°
2026-04-24 08:18 50.11172 14.26641 1253 ft 15 kts 36°
2026-04-24 08:19 50.11236 14.26774 1253 ft 15 kts 64°
2026-04-24 08:19 50.11283 14.26931 1253 ft 16 kts 64°
2026-04-24 08:19 50.11333 14.27096 1253 ft 17 kts 65°
2026-04-24 08:19 50.11383 14.27265 1253 ft 17 kts 62°
2026-04-24 08:20 50.11451 14.27414 1253 ft 17 kts
2026-04-24 08:20 50.11545 14.27311 1253 ft 17 kts 292°
2026-04-24 08:20 50.11529 14.27122 1253 ft 22 kts 245°
2026-04-24 08:20 50.11377 14.26603 1253 ft 86 kts 244°
2026-04-24 08:21 50.11033 14.25457 1253 ft 145 kts 246°
2026-04-24 08:21 50.10533 14.23840 1328 ft 182 kts 245°
2026-04-24 08:21 50.09891 14.22077 1902 ft 190 kts 226°
2026-04-24 08:21 50.08661 14.21027 2222 ft 216 kts 191°
2026-04-24 08:22 50.07141 14.21282 2603 ft 227 kts 165°
2026-04-24 08:22 50.05669 14.22209 2900 ft 230 kts 161°
2026-04-24 08:22 50.04064 14.23107 3132 ft 254 kts 162°
2026-04-24 08:22 50.02353 14.24001 3655 ft 266 kts 163°
2026-04-24 08:23 50.00590 14.24893 4349 ft 270 kts 164°
2026-04-24 08:23 49.98790 14.25784 5076 ft 273 kts 163°
2026-04-24 08:23 49.97153 14.27172 5748 ft 279 kts 136°
2026-04-24 08:23 49.95852 14.29407 6427 ft 282 kts 132°
2026-04-24 08:24 49.94568 14.31708 7108 ft 285 kts 132°
2026-04-24 08:24 49.93270 14.34025 7778 ft 287 kts 133°
2026-04-24 08:24 49.91960 14.36357 8435 ft 289 kts 133°
2026-04-24 08:24 49.90639 14.38706 9081 ft 292 kts 133°
2026-04-24 08:25 49.89304 14.41070 9697 ft 294 kts 133°
2026-04-24 08:25 49.87949 14.43452 10313 ft 297 kts 134°
2026-04-24 08:25 49.86535 14.45939 10438 ft 319 kts 133°
2026-04-24 08:25 49.85020 14.48608 10569 ft 339 kts 133°
2026-04-24 08:26 49.83448 14.51384 11050 ft 347 kts 133°
2026-04-24 08:26 49.81877 14.54155 11667 ft 350 kts 133°
2026-04-24 08:26 49.80274 14.56979 12301 ft 352 kts 133°
2026-04-24 08:26 49.78654 14.59831 12862 ft 356 kts 134°
2026-04-24 08:27 49.77013 14.62715 13399 ft 361 kts 134°
2026-04-24 08:27 49.75351 14.65633 13928 ft 365 kts 135°
2026-04-24 08:27 49.73670 14.68592 14433 ft 369 kts 135°
2026-04-24 08:27 49.71944 14.71551 14948 ft 371 kts 141°
2026-04-24 08:28 49.69887 14.73760 15415 ft 367 kts 156°
2026-04-24 08:28 49.67630 14.75616 15896 ft 371 kts 157°
2026-04-24 08:28 49.65348 14.77484 16383 ft 374 kts 157°
2026-04-24 08:28 49.63047 14.79377 16851 ft 378 kts 157°
2026-04-24 08:29 49.60725 14.81293 17305 ft 382 kts 157°
2026-04-24 08:29 49.58374 14.83234 17749 ft 386 kts 157°
2026-04-24 08:29 49.56004 14.85190 18183 ft 389 kts 158°
2026-04-24 08:29 49.53569 14.86978 18594 ft 386 kts 168°
2026-04-24 08:30 49.50967 14.87629 18986 ft 378 kts 184°
2026-04-24 08:30 49.48342 14.87700 19403 ft 380 kts 186°
2026-04-24 08:30 49.45695 14.87757 19826 ft 384 kts 186°
2026-04-24 08:30 49.43068 14.87829 20228 ft 387 kts 186°
2026-04-24 08:31 49.40374 14.87912 20624 ft 390 kts 186°
2026-04-24 08:31 49.37656 14.88001 21009 ft 394 kts 186°
2026-04-24 08:31 49.34917 14.88093 21386 ft 397 kts 186°
2026-04-24 08:31 49.32152 14.88186 21754 ft 400 kts 186°
2026-04-24 08:32 49.29341 14.88281 22116 ft 404 kts 186°
2026-04-24 08:32 49.26575 14.88375 22462 ft 407 kts 186°
2026-04-24 08:32 49.23743 14.88471 22806 ft 410 kts 186°
2026-04-24 08:32 49.20889 14.88567 23143 ft 413 kts 187°
2026-04-24 08:33 49.18012 14.88664 23473 ft 417 kts 187°
2026-04-24 08:33 49.15116 14.88762 23797 ft 420 kts 187°
2026-04-24 08:33 49.12195 14.88861 24114 ft 423 kts 187°
2026-04-24 08:33 49.09247 14.88959 24365 ft 429 kts 187°
2026-04-24 08:34 49.06245 14.89058 24489 ft 437 kts 187°
2026-04-24 08:34 49.03186 14.89160 24644 ft 444 kts 186°
2026-04-24 08:34 49.00083 14.89264 24813 ft 451 kts 186°
2026-04-24 08:34 48.96960 14.89370 24987 ft 458 kts 185°
2026-04-24 08:35 48.93768 14.89478 25205 ft 463 kts 185°
2026-04-24 08:35 48.90551 14.89588 25536 ft 466 kts 185°
2026-04-24 08:35 48.87301 14.89698 25773 ft 470 kts 185°
2026-04-24 08:35 48.84023 14.89810 26102 ft 472 kts 185°
2026-04-24 08:36 48.80788 14.89919 26393 ft 474 kts 185°
2026-04-24 08:36 48.77494 14.90029 26677 ft 476 kts 185°
2026-04-24 08:36 48.74177 14.90139 26940 ft 479 kts 185°
2026-04-24 08:36 48.70864 14.90249 27191 ft 482 kts 185°
2026-04-24 08:37 48.67509 14.90360 27448 ft 485 kts 185°
2026-04-24 08:37 48.64138 14.90472 27698 ft 488 kts 185°
2026-04-24 08:37 48.60749 14.90584 27994 ft 489 kts 185°
2026-04-24 08:37 48.57409 14.90696 28328 ft 489 kts 185°
2026-04-24 08:38 48.54015 14.90809 28673 ft 489 kts 185°
2026-04-24 08:38 48.50619 14.90921 28989 ft 489 kts 185°
2026-04-24 08:38 48.47215 14.91032 29273 ft 490 kts 185°
2026-04-24 08:38 48.43864 14.91142 29546 ft 491 kts 185°
2026-04-24 08:39 48.40455 14.91254 29837 ft 491 kts 186°
2026-04-24 08:39 48.37044 14.91366 30103 ft 492 kts 186°
2026-04-24 08:39 48.33631 14.91477 30357 ft 493 kts 186°
2026-04-24 08:39 48.30239 14.91588 30611 ft 493 kts 186°
2026-04-24 08:40 48.26813 14.91700 30864 ft 494 kts 186°
2026-04-24 08:40 48.23380 14.91812 31101 ft 495 kts 186°
2026-04-24 08:40 48.19947 14.91924 31343 ft 495 kts 186°
2026-04-24 08:40 48.16559 14.92034 31573 ft 496 kts 186°
2026-04-24 08:41 48.13117 14.92145 31791 ft 496 kts 186°
2026-04-24 08:41 48.09674 14.92257 31999 ft 497 kts 186°
2026-04-24 08:41 48.06229 14.92369 32216 ft 497 kts 186°
2026-04-24 08:41 48.02784 14.92480 32433 ft 498 kts 186°
2026-04-24 08:42 47.99331 14.92591 32624 ft 498 kts 186°
2026-04-24 08:42 47.95903 14.92702 32792 ft 499 kts 186°
2026-04-24 08:42 47.92435 14.92813 32975 ft 500 kts 186°
2026-04-24 08:42 47.88965 14.92925 33131 ft 501 kts 186°
2026-04-24 08:43 47.85488 14.93038 33191 ft 504 kts 185°
2026-04-24 08:43 47.81986 14.93152 33360 ft 503 kts 185°
2026-04-24 08:43 47.78539 14.93265 33550 ft 502 kts 186°
2026-04-24 08:43 47.75052 14.93377 33727 ft 502 kts 186°
2026-04-24 08:44 47.71604 14.93486 33846 ft 502 kts 186°
2026-04-24 08:44 47.64619 14.94108 34048 ft 511 kts 175°
2026-04-24 08:44 47.61161 14.95159 34158 ft 514 kts 172°
2026-04-24 08:45 47.57673 14.96303 34248 ft 515 kts 172°
2026-04-24 08:45 47.50635 14.98469 34441 ft 516 kts 173°
2026-04-24 08:46 47.43635 15.00537 34637 ft 517 kts 173°
2026-04-24 08:46 47.40122 15.01574 34749 ft 517 kts 173°
2026-04-24 08:46 47.36659 15.02596 34845 ft 518 kts 173°
2026-04-24 08:47 47.29602 15.04675 35027 ft 519 kts 173°
2026-04-24 08:47 47.26072 15.05713 35150 ft 517 kts 173°
2026-04-24 08:47 47.22569 15.06743 35179 ft 514 kts 173°
2026-04-24 08:48 47.15660 15.08767 35126 ft 510 kts 173°
2026-04-24 08:48 47.08722 15.10793 35120 ft 512 kts 173°
2026-04-24 08:49 47.01760 15.12821 35133 ft 515 kts 173°
2026-04-24 08:49 46.94775 15.14853 35137 ft 514 kts 172°
2026-04-24 08:50 46.87796 15.16876 35078 ft 513 kts 171°
2026-04-24 08:50 46.80960 15.18847 35124 ft 510 kts 171°
2026-04-24 08:51 46.73917 15.20876 35130 ft 512 kts 171°
2026-04-24 08:51 46.66991 15.22869 35134 ft 512 kts 171°
2026-04-24 08:52 46.60077 15.24853 35131 ft 512 kts 171°
2026-04-24 08:52 46.53106 15.26848 35130 ft 512 kts 171°
2026-04-24 08:53 46.46184 15.28823 35131 ft 512 kts 171°
2026-04-24 08:53 46.39215 15.30807 35131 ft 512 kts 171°
2026-04-24 08:54 46.32255 15.32783 35139 ft 512 kts 171°
2026-04-24 08:54 46.25350 15.34798 35153 ft 512 kts 169°
2026-04-24 08:55 46.18414 15.36936 35159 ft 511 kts 169°
2026-04-24 08:55 46.11488 15.39073 35157 ft 511 kts 169°
2026-04-24 08:56 46.04541 15.41206 35158 ft 511 kts 169°
2026-04-24 08:56 45.97667 15.43311 35157 ft 511 kts 169°
2026-04-24 08:57 45.90730 15.45430 35158 ft 511 kts 169°
2026-04-24 08:57 45.83792 15.47538 35143 ft 510 kts 169°
2026-04-24 08:58 45.76895 15.49631 35157 ft 511 kts 169°
2026-04-24 08:58 45.69948 15.51737 35160 ft 512 kts 169°
2026-04-24 08:59 45.63013 15.53834 35158 ft 511 kts 169°
2026-04-24 08:59 45.56122 15.55913 35158 ft 511 kts 169°
2026-04-24 09:00 45.49174 15.58003 35158 ft 511 kts 169°
2026-04-24 09:00 45.42240 15.60084 35158 ft 511 kts 169°
2026-04-24 09:01 45.35317 15.62157 35158 ft 511 kts 169°
2026-04-24 09:01 45.28439 15.64210 35158 ft 511 kts 169°
2026-04-24 09:02 45.21454 15.66305 35151 ft 511 kts 170°
2026-04-24 09:02 45.14563 15.68369 35158 ft 511 kts 170°
2026-04-24 09:03 45.07584 15.70437 35155 ft 511 kts 170°
2026-04-24 09:03 45.00672 15.72480 35150 ft 512 kts 169°
2026-04-24 09:04 44.93710 15.74526 35149 ft 513 kts 169°
2026-04-24 09:04 44.86723 15.76477 35088 ft 513 kts 169°
2026-04-24 09:05 44.79754 15.78434 35135 ft 512 kts 169°
2026-04-24 09:05 44.72838 15.80389 35130 ft 513 kts 169°
2026-04-24 09:06 44.65855 15.82357 35136 ft 513 kts 169°
2026-04-24 09:06 44.58885 15.84316 35133 ft 513 kts 169°
2026-04-24 09:07 44.51917 15.86269 35132 ft 513 kts 169°
2026-04-24 09:07 44.41409 15.89204 34291 ft 518 kts 168°
2026-04-24 09:08 44.37860 15.90194 33622 ft 517 kts 168°
2026-04-24 09:08 44.34342 15.91174 32933 ft 516 kts 169°
2026-04-24 09:08 44.30849 15.92146 32245 ft 515 kts 169°
2026-04-24 09:08 44.27377 15.93109 31563 ft 514 kts 169°
2026-04-24 09:09 44.23844 15.94089 30867 ft 513 kts 168°
2026-04-24 09:09 44.20374 15.95050 30180 ft 512 kts 169°
2026-04-24 09:09 44.16901 15.96011 29489 ft 511 kts 169°
2026-04-24 09:09 44.13390 15.96982 28790 ft 510 kts 169°
2026-04-24 09:10 44.09921 15.97939 28096 ft 508 kts 169°
2026-04-24 09:10 44.06457 15.98894 27401 ft 507 kts 168°
2026-04-24 09:10 44.02988 15.99850 26702 ft 505 kts 169°
2026-04-24 09:10 43.99581 16.00787 26013 ft 503 kts 169°
2026-04-24 09:11 43.96158 16.01728 25317 ft 501 kts 168°
2026-04-24 09:11 43.92758 16.02661 24623 ft 499 kts 168°
2026-04-24 09:11 43.89385 16.03585 23921 ft 496 kts 168°
2026-04-24 09:11 43.85957 16.04184 23159 ft 492 kts 183°
2026-04-24 09:12 43.82628 16.03598 22560 ft 483 kts 192°
2026-04-24 09:12 43.79359 16.02780 21957 ft 477 kts 192°
2026-04-24 09:12 43.76105 16.02017 21309 ft 473 kts 191°
2026-04-24 09:12 43.72863 16.01300 20658 ft 468 kts 191°
2026-04-24 09:13 43.69633 16.00602 20004 ft 464 kts 191°
2026-04-24 09:13 43.66457 15.99921 19354 ft 459 kts 191°
2026-04-24 09:13 43.63334 15.99253 18691 ft 449 kts 190°
2026-04-24 09:13 43.60245 15.98592 18056 ft 445 kts 190°
2026-04-24 09:14 43.57204 15.97943 17479 ft 439 kts 190°
2026-04-24 09:14 43.54192 15.97300 16899 ft 433 kts 190°
2026-04-24 09:14 43.51247 15.96673 16321 ft 425 kts 190°
2026-04-24 09:14 43.48370 15.96060 15747 ft 418 kts 190°
2026-04-24 09:15 43.45532 15.95457 15171 ft 410 kts 190°
2026-04-24 09:15 43.42712 15.94857 14590 ft 404 kts 189°
2026-04-24 09:15 43.39994 15.94280 14023 ft 397 kts 189°
2026-04-24 09:15 43.37289 15.93707 13445 ft 390 kts 189°
2026-04-24 09:16 43.34615 15.93277 12881 ft 380 kts 178°
2026-04-24 09:16 43.32133 15.94074 12423 ft 365 kts 152°
2026-04-24 09:16 43.30190 15.96197 11962 ft 350 kts 127°
2026-04-24 09:16 43.29019 15.99020 11515 ft 336 kts 112°
2026-04-24 09:17 43.28091 16.01931 11056 ft 327 kts 112°
2026-04-24 09:17 43.27183 16.04782 10606 ft 319 kts 112°
2026-04-24 09:17 43.26311 16.07501 10180 ft 310 kts 112°
2026-04-24 09:17 43.25448 16.10183 9748 ft 303 kts 112°
2026-04-24 09:18 43.24604 16.12801 9316 ft 296 kts 112°
2026-04-24 09:18 43.23783 16.15342 8888 ft 290 kts 112°
2026-04-24 09:18 43.22974 16.17842 8467 ft 284 kts 112°
2026-04-24 09:18 43.22179 16.20296 8070 ft 281 kts 112°
2026-04-24 09:19 43.21385 16.22744 7669 ft 279 kts 112°
2026-04-24 09:19 43.20598 16.25167 7270 ft 278 kts 112°
2026-04-24 09:19 43.19818 16.27566 6874 ft 276 kts 112°
2026-04-24 09:19 43.19030 16.29988 6470 ft 275 kts 112°
2026-04-24 09:20 43.18252 16.32376 6073 ft 274 kts 112°
2026-04-24 09:20 43.17479 16.34750 5687 ft 273 kts 112°
2026-04-24 09:20 43.16701 16.37133 5316 ft 271 kts 112°
2026-04-24 09:20 43.15940 16.39463 4967 ft 268 kts 112°
2026-04-24 09:21 43.15180 16.41788 4636 ft 265 kts 112°
2026-04-24 09:21 43.14432 16.44073 4333 ft 261 kts 112°
2026-04-24 09:21 43.13692 16.46334 4057 ft 256 kts 112°
2026-04-24 09:21 43.12974 16.48524 3832 ft 249 kts 112°
2026-04-24 09:22 43.12280 16.50639 3604 ft 238 kts 112°
2026-04-24 09:22 43.11943 16.52746 3459 ft 215 kts 77°
2026-04-24 09:22 43.12472 16.54478 3474 ft 182 kts 46°
2026-04-24 09:22 43.13431 16.55500 3503 ft 174 kts 25°
2026-04-24 09:23 43.14484 16.56220 3622 ft 174 kts 24°
2026-04-24 09:23 43.15597 16.56971 3552 ft 175 kts 25°
2026-04-24 09:23 43.16679 16.57698 3465 ft 173 kts 24°
2026-04-24 09:23 43.17772 16.58430 3465 ft 173 kts 25°
2026-04-24 09:24 43.18854 16.59151 3459 ft 174 kts 25°
2026-04-24 09:24 43.19952 16.59882 3319 ft 175 kts 24°
2026-04-24 09:24 43.21034 16.60676 3167 ft 182 kts 34°
2026-04-24 09:24 43.22091 16.61694 3067 ft 189 kts 32°
2026-04-24 09:25 43.23151 16.62716 2991 ft 185 kts 33°
2026-04-24 09:25 43.24204 16.63733 2904 ft 183 kts 33°
2026-04-24 09:25 43.25255 16.64838 2792 ft 186 kts 37°
2026-04-24 09:25 43.26253 16.65829 2529 ft 169 kts 34°
2026-04-24 09:26 43.27216 16.66714 2041 ft 166 kts 31°
2026-04-24 09:26 43.28134 16.67556 1781 ft 147 kts 33°
2026-04-24 09:26 43.28812 16.68198 1781 ft 86 kts 38°
2026-04-24 09:26 43.29044 16.68429 1781 ft 18 kts 27°
2026-04-24 09:27 43.29060 16.68456 1781 ft 11 kts 214°
2026-04-24 09:27 43.28992 16.68383 1781 ft 13 kts 217°
2026-04-24 09:27 43.28902 16.68295 1781 ft 18 kts 215°
2026-04-24 09:27 43.28789 16.68186 1781 ft 20 kts 215°
2026-04-24 09:28 43.28715 16.68095 1781 ft 12 kts 259°
2026-04-24 09:28 43.28762 16.67990 1781 ft 13 kts 341°
2026-04-24 09:28 43.28836 16.68047 1781 ft 8 kts 35°
2026-04-24 09:28 43.28875 16.68021 1781 ft 7 kts 306°
2026-04-24 09:29 43.28890 16.68023 1781 ft 2 kts 81°
2026-04-24 09:29 43.28889 16.68026 1781 ft 0 kts 98°